Location: Newark
(13.8625°N, 100.5144°E)
Time: 12:55:44
(UTC+00:00)

Envisat - Pass Details

Date: 05 April 2020
Orbit: 764 x 766 km, 98.1° (Epoch: 02 June)

Event Time Altitude Azimuth Distance (km) Brightness Sun altitude
Rises 22:26:57 0° 42° (NE) 3,223 7.1 -11.3°
Reaches altitude 10° 22:30:22 10° 67° (ENE) 2,296 6.9 -10.5°
Maximum altitude 22:33:00 14° 99° (E) 2,012 6.4 -9.8°
Drops below altitude 10° 22:35:38 10° 130° (SE) 2,294 6.1 -9.2°
Sets 22:39:02 0° 155° (SSE) 3,219 6.5 -8.4°
